Location: Arran
(51.9410°N, 101.7372°W)
Time: 19:07:11
(UTC+00:00)

BEESAT - Pass Details

Date: 04 December 2023
Orbit: 695 x 702 km, 98.5° (Epoch: 23 February)

Event Time Altitude Azimuth Distance (km) Brightness Sun altitude
Rises 13:55:31 0° 119° (ESE) 3,089 ? -6.1°
Reaches altitude 10° 13:58:15 10° 103° (ESE) 2,175 ? -5.8°
Maximum altitude 14:01:42 20° 57° (ENE) 1,588 ? -5.3°
Drops below altitude 10° 14:05:11 10° 10° (N) 2,184 ? -4.8°
Sets 14:07:55 0° 354° (N) 3,107 ? -4.5°
